sat.trackr.live / text

‹ back to catalog

STARLINK-34500

NORAD 64613 · 2025-137V

PAYLOAD ACTIVE UNKNOWN

§ Identity

Operator
Country
US
Launch date
2025-06-25
Launch site
AFETR
Launch vehicle
Mass (kg)
RCS (m²)

Purposes: comms

External: N2YO · Heavens-Above · Gunter

§ Orbital elements

Epoch: 2026-05-24T23:36:52.797024Z

Period
94.11 min
Inclination
53.1594°
Eccentricity
0.0000966
Mean motion
15.30204469 rev/d
Perigee alt
474.5 km
Apogee alt
475.9 km
Semi-major
6,853.3 km
B*
9.0331e-4
RAAN
341.0139°
Arg perigee
96.9042°
Mean anomaly
263.2069°
Rev number
5,251

§ Raw data

STARLINK-345001 64613U 25137V   26144.98394441  .00026493  00000+0  90331-3 0  99992 64613  53.1594 341.0139 0000966  96.9042 263.2069 15.30204469 52516

JSON: /api/v1/satellites/64613 · /tle

For live sub-satellite position, see the globe view (requires WebGL).

§ Visibility from observer

Set your observer location to see the next 7 days of passes ≥ 10°. The values pass through the URL so the page stays shareable.

No JS? Fill the form by hand. The geolocation button needs JavaScript.